Location: Crescent
(42.8242°N, 73.7329°W)
Time: 18:03:18
(UTC+00:00)

SR - Pass Details

Date: 19 February 2026
Orbit: 572 x 848 km, 66.7° (Epoch: 8 March)

Event Time Altitude Azimuth Distance (km) Brightness Sun altitude
Rises 17:08:59 0° 334° (NNW) 3,071 ? 36.1°
Reaches altitude 10° 17:11:21 10° 341° (NNW) 2,196 ? 36.1°
Maximum altitude 17:16:10 44° 53° (NE) 1,035 ? 36.1°
Drops below altitude 10° 17:21:19 10° 126° (SE) 2,353 ? 36.0°
Sets 17:23:55 0° 132° (SE) 3,316 ? 36.0°
